Location: River House Observatory
(37.8577°N, 76.3548°W)
Time: 15:36:17
(UTC-05:00)

Hubble Space Telescope - Pass Details

Date: 24 January 2018
Orbit: 537 x 541 km, 28.5° (Epoch: 23 February)

Event Time Altitude Azimuth Distance (km) Brightness Sun altitude
Rises 18:42:31 0° 227° (SW) 2,665 5.3 -16.3°
Reaches altitude 10° 18:45:28 10° 205° (SSW) 1,777 3.9 -16.9°
Maximum altitude 18:48:00 16° 167° (SSE) 1,442 2.9 -17.4°
Enters shadow 18:49:22 14° 144° (SE) 1,547 2.9 -17.6°
